This demonstration page uses our WeatherBlox Daily Observations layout. Learn more.

Left ArrowRight Arrow

Hourly Observations for July 1, 2016

Temp ( °F °C ) Dew Point ( °F °C ) Humidity (%) Winds ( mph kmh ) Pressure ( in mb ) Visibility ( mi km ) Precip ( " mm )
12:59 am 00:59 Partly Cloudy 71 21.7 69 20.6 94 94 Calm 30.01 1016 8 13 0.00 0.00
1:59 am 01:59 Mostly Clear 71 21.7 69 20.6 94 94 Calm 30.00 1016 9 14 0.00 0.00
2:59 am 02:59 Clear 71 21.7 69 20.6 94 94 Calm 29.99 1016 9 14 0.00 0.00
3:59 am 03:59 Clear 73 22.8 71 21.7 94 94 SSW 5 7 29.99 1016 8 13 0.00 0.00
4:59 am 04:59 Clear 74 23.3 72 22.2 94 94 Calm 29.98 1015 8 13 0.00 0.00
5:59 am 05:59 Mostly Sunny 75 23.9 72 22.2 90 90 S 6 9 29.99 1016 7 11 0.00 0.00
6:59 am 06:59 Mostly Cloudy 76 24.4 73 22.8 91 91 SSW 8 13 30.00 1016 7 11 0.00 0.00
7:41 am 07:41 Mostly Cloudy with Mist and Fog 76 24.4 73 22.8 91 91 SW 8 13 30.00 1016 6 10 0.00 0.00
7:59 am 07:59 Mostly Cloudy 77 25 74 23.3 90 90 SW 8 13 30.01 1016 7 11 0.00 0.00
8:31 am 08:31 Mostly Cloudy 78 25.6 74 23.3 87 87 SSW 7 11 30.00 1016 7 11 0.00 0.00
8:59 am 08:59 Mostly Cloudy 80 26.7 74 23.3 82 82 S 7 11 30.00 1016 7 11 0.00 0.00
9:59 am 09:59 Mostly Cloudy 82 27.8 75 23.9 79 79 SW 7 11 29.99 1016 7 11 0.00 0.00
10:59 am 10:59 Partly Cloudy 85 29.4 75 23.9 72 72 SW 8 13 29.98 1015 8 13 0.00 0.00
11:59 am 11:59 Mostly Cloudy 86 30 73 22.8 65 65 VRB 6 9 29.97 1015 8 13 0.00 0.00
12:59 pm 12:59 Mostly Cloudy 87 30.6 74 23.3 65 65 SW 10 17 29.96 1015 8 13 0.00 0.00
1:59 pm 13:59 Mostly Cloudy 84 28.9 74 23.3 72 72 ESE 3 6 29.93 1014 7 11 0.00 0.00
2:27 pm 14:27 Mostly Cloudy with Nearby Thunderstorms 82 27.8 72 22.2 72 72 SSE 13 20 29.94 1014 7 11 0.00 0.00
2:39 pm 14:39 Mostly Cloudy with Thunderstorms 81 27.2 75 23.9 82 82 SSE 8 13 29.91 1013 5 8 0.02 0.51
2:59 pm 14:59 Mostly Cloudy with Thunderstorms 86 30 76 24.4 72 72 VRB 5 7 29.92 1013 9 14 0.02 0.51
3:26 pm 15:26 Mostly Cloudy with Thunderstorms 84 28.9 74 23.3 72 72 SSW 12 19 29.91 1013 6 10 0.00 0.03
3:59 pm 15:59 Cloudy with Thunderstorms 79 26.1 73 22.8 82 82 NNW 14 22 29.92 1013 9 14 0.00 0.03
4:26 pm 16:26 Cloudy with Thunderstorms 76 24.4 71 21.7 85 85 NNE 5 7 29.94 1014 3 5 0.03 0.76
4:59 pm 16:59 Mostly Cloudy with Thunderstorms 78 25.6 71 21.7 79 79 Calm 29.92 1013 8 13 0.09 2.29
5:51 pm 17:51 Mostly Cloudy 78 25.6 71 21.7 79 79 ESE 7 11 29.94 1014 10 16 0.00 0.03
5:59 pm 17:59 Mostly Cloudy 78 25.6 71 21.7 79 79 ESE 7 11 29.93 1013 10 16 0.00 0.03
6:59 pm 18:59 Mostly Cloudy 75 23.9 69 20.6 82 82 SE 12 19 29.92 1013 10 16 0.00 0.00
7:59 pm 19:59 Mostly Cloudy 75 23.9 68 20 79 79 S 10 17 29.95 1014 10 16 0.00 0.00
8:59 pm 20:59 Mostly Cloudy 73 22.8 69 20.6 87 87 S 8 13 29.95 1014 10 16 0.00 0.00
9:59 pm 21:59 Mostly Cloudy 73 22.8 68 20 84 84 S 10 17 29.95 1014 10 16 0.00 0.00
10:59 pm 22:59 Mostly Cloudy 74 23.3 69 20.6 85 85 SSW 9 15 29.94 1014 10 16 0.00 0.00
11:59 pm 23:59 Mostly Cloudy 75 23.9 68 20 79 79 SW 9 15 29.97 1015 10 16 0.00 0.00

Powered by AerisWeather